Location: Caltech
(34.1382°N, 118.1253°W)
Time: 23:50:23
(UTC-07:00)

Lacrosse 5 - Visible Passes

Search period start: 02 September 2015 00:00
Search period end: 12 September 2015 00:00
Orbit: 714 x 723 km, 57.0° (Epoch: 17 August)

Date Brightness Start Highest point End Pass type
(mag) Time Alt. Az. Time Alt. Az. Time Alt. Az.
02 Sep 3.4 06:02:25 10° S 06:07:00 36° ESE 06:11:37 10° ENE visible
03 Sep 4.4 05:10:37 10° SSE 05:13:49 17° ESE 05:17:11 10° ENE visible
04 Sep 2.2 05:57:59 10° SSW 06:03:01 72° SE 06:08:04 10° NE visible
05 Sep 3.3 05:05:14 10° S 05:09:46 35° ESE 05:14:22 10° ENE visible
06 Sep 4.2 04:14:14 12° SSE 04:16:35 17° ESE 04:19:53 10° ENE visible
06 Sep 2.0 05:54:10 10° SW 05:59:10 60° NW 06:04:12 10° NNE visible
07 Sep 2.0 05:02:45 24° SSW 05:05:48 70° SE 05:10:51 10° NE visible
08 Sep 3.0 04:11:55 32° SE 04:12:32 34° ESE 04:17:07 10° ENE visible
08 Sep 2.8 05:51:08 11° WSW 05:55:30 33° NW 06:00:02 10° NNE visible
09 Sep 4.4 03:20:59 15° E 03:20:59 15° E 03:22:35 10° E visible
09 Sep 1.9 05:00:12 39° WSW 05:01:57 62° NW 05:06:58 10° NNE visible
10 Sep 2.2 04:09:11 61° E 04:09:11 61° E 04:13:36 10° NE visible
10 Sep 3.5 05:48:24 11° W 05:51:58 20° NW 05:55:38 10° N visible
11 Sep 4.2 03:18:07 19° ENE 03:18:07 19° ENE 03:19:51 10° ENE visible
11 Sep 2.7 04:57:19 31° WNW 04:58:15 34° NW 05:02:50 10° NNE visible
